Location: Recife
(8.0585°S, 34.8848°W)
Time: 12:53:20
(UTC-03:00)

Vanguard 1 Rocket - Pass Details

Date: 22 April 2026
Orbit: 655 x 4212 km, 34.3° (Epoch: 12 May)

Event Time Altitude Azimuth Distance (km) Brightness Sun altitude
Rises 00:21:25 0° 326° (NW) 8,174 12.2 -73.9°
Reaches altitude 10° 00:34:05 10° 352° (N) 6,362 11.6 -70.9°
Maximum altitude 00:40:20 12° 11° (NNE) 5,619 11.4 -69.4°
Drops below altitude 10° 00:45:35 10° 31° (NNE) 5,245 11.4 -68.1°
Sets 00:52:53 0° 60° (ENE) 5,372 11.7 -66.3°
